Time,TemperatureF,DewpointF,PressureIn,WindDirection,WindDirectionDegrees,WindSpeedMPH,WindSpeedGustMPH,Humidity,HourlyPrecipIn,Conditions,Clouds,dailyrainin,SoftwareType,DateUTC
2013-08-24 00:04:00,62.0,59.0,30.06,NE,38,0.0,0.0,91,0.00,,,0.00,,2013-08-24 04:04:00,
2013-08-24 00:14:00,62.0,59.0,30.06,NE,38,0.0,0.0,91,0.00,,,0.00,,2013-08-24 04:14:00,
2013-08-24 00:24:00,61.0,59.0,30.07,NE,38,0.0,0.0,92,0.00,,,0.00,,2013-08-24 04:24:00,
2013-08-24 00:41:00,61.0,59.0,30.08,NE,38,0.0,1.0,93,0.00,,,0.00,,2013-08-24 04:41:00,
2013-08-24 00:44:00,61.0,59.0,30.07,NE,38,0.0,0.0,92,0.00,,,0.00,,2013-08-24 04:44:00,
2013-08-24 00:54:00,61.0,59.0,30.08,NE,38,0.0,1.0,92,0.00,,,0.00,,2013-08-24 04:54:00,
2013-08-24 01:13:00,61.0,59.0,30.08,NE,38,0.0,1.0,93,0.00,,,0.00,,2013-08-24 05:13:00,
2013-08-24 01:23:00,61.0,59.0,30.08,NE,38,0.0,1.0,93,0.00,,,0.00,,2013-08-24 05:23:00,
2013-08-24 01:33:00,61.0,59.0,30.08,NE,38,0.0,1.0,93,0.00,,,0.00,,2013-08-24 05:33:00,
2013-08-24 01:53:00,61.0,59.0,30.09,NNE,20,0.0,2.0,94,0.00,,,0.00,,2013-08-24 05:53:00,
2013-08-24 02:12:00,61.0,59.0,30.09,NNE,28,1.0,5.0,94,0.00,,,0.00,,2013-08-24 06:12:00,
2013-08-24 02:22:00,63.0,61.0,30.08,North,4,1.0,8.0,93,0.00,,,0.00,,2013-08-24 06:22:00,
2013-08-24 02:32:00,63.0,61.0,30.08,North,4,1.0,8.0,93,0.00,,,0.00,,2013-08-24 06:32:00,
2013-08-24 02:42:00,63.0,61.0,30.08,North,4,1.0,8.0,93,0.00,,,0.00,,2013-08-24 06:42:00,
2013-08-24 02:52:00,67.0,61.0,30.09,North,358,2.0,11.0,81,0.00,,,0.00,,2013-08-24 06:52:00,
2013-08-24 03:02:00,67.0,61.0,30.09,North,358,2.0,11.0,81,0.00,,,0.00,,2013-08-24 07:02:00,
2013-08-24 03:11:00,67.0,61.0,30.10,NNE,33,1.0,15.0,82,0.00,,,0.00,,2013-08-24 07:11:00,
2013-08-24 03:12:00,67.0,61.0,30.09,North,358,2.0,11.0,81,0.00,,,0.00,,2013-08-24 07:12:00,
2013-08-24 03:22:00,67.0,62.0,30.10,NNE,26,4.0,12.0,83,0.00,,,0.00,,2013-08-24 07:22:00,
2013-08-24 03:43:00,67.0,61.0,30.10,NNE,33,1.0,15.0,82,0.00,,,0.00,,2013-08-24 07:43:00,
2013-08-24 03:53:00,67.0,61.0,30.10,NNE,33,1.0,15.0,82,0.00,,,0.00,,2013-08-24 07:53:00,
2013-08-24 04:02:00,67.0,61.0,30.10,NNE,33,1.0,15.0,82,0.00,,,0.00,,2013-08-24 08:02:00,
2013-08-24 04:22:00,66.0,59.0,30.13,NE,51,2.0,14.0,78,0.00,,,0.00,,2013-08-24 08:22:00,
2013-08-24 04:32:00,66.0,59.0,30.13,NE,51,2.0,14.0,78,0.00,,,0.00,,2013-08-24 08:32:00,
2013-08-24 04:52:00,66.0,59.0,30.13,NE,34,1.0,11.0,78,0.00,,,0.00,,2013-08-24 08:52:00,
2013-08-24 05:11:00,66.0,59.0,30.13,NE,39,2.0,10.0,79,0.00,,,0.00,,2013-08-24 09:11:00,
2013-08-24 05:22:00,65.0,58.0,30.14,NE,41,2.0,9.0,79,0.00,,,0.00,,2013-08-24 09:22:00,
2013-08-24 05:44:00,65.0,58.0,30.14,NNE,12,1.0,8.0,79,0.00,,,0.00,,2013-08-24 09:44:00,
2013-08-24 05:53:00,65.0,58.0,30.14,NNE,12,1.0,8.0,79,0.00,,,0.00,,2013-08-24 09:53:00,
2013-08-24 06:13:00,63.0,58.0,30.16,NNE,29,1.0,12.0,84,0.00,,,0.00,,2013-08-24 10:13:00,
2013-08-24 06:23:00,63.0,58.0,30.16,NE,43,0.0,8.0,83,0.00,,,0.00,,2013-08-24 10:23:00,
2013-08-24 06:42:00,64.0,58.0,30.17,North,4,0.0,6.0,82,0.00,,,0.00,,2013-08-24 10:42:00,
2013-08-24 06:53:00,64.0,58.0,30.18,North,9,0.0,5.0,82,0.00,,,0.00,,2013-08-24 10:53:00,
2013-08-24 07:03:00,64.0,58.0,30.18,North,9,0.0,5.0,82,0.00,,,0.00,,2013-08-24 11:03:00,
2013-08-24 07:12:00,64.0,58.0,30.18,North,9,0.0,5.0,82,0.00,,,0.00,,2013-08-24 11:12:00,
2013-08-24 07:22:00,63.0,58.0,30.19,NNE,20,0.0,5.0,83,0.00,,,0.00,,2013-08-24 11:22:00,
2013-08-24 07:42:00,64.0,58.0,30.20,North,8,2.0,8.0,82,0.00,,,0.00,,2013-08-24 11:42:00,
2013-08-24 07:52:00,64.0,58.0,30.20,North,8,2.0,8.0,82,0.00,,,0.00,,2013-08-24 11:52:00,
2013-08-24 08:12:00,65.0,58.0,30.20,NNE,13,4.0,13.0,78,0.00,,,0.00,,2013-08-24 12:12:00,
2013-08-24 08:21:00,66.0,59.0,30.21,NNE,16,5.0,15.0,77,0.00,,,0.00,,2013-08-24 12:21:00,
2013-08-24 08:42:00,66.0,58.0,30.21,NNE,26,2.0,15.0,75,0.00,,,0.00,,2013-08-24 12:42:00,
2013-08-24 08:52:00,67.0,58.0,30.22,NE,36,2.0,13.0,73,0.00,,,0.00,,2013-08-24 12:52:00,
2013-08-24 09:11:00,67.0,58.0,30.22,NE,36,2.0,13.0,73,0.00,,,0.00,,2013-08-24 13:11:00,
2013-08-24 09:22:00,68.0,58.0,30.22,North,6,4.0,11.0,71,0.00,,,0.00,,2013-08-24 13:22:00,
2013-08-24 09:52:00,68.0,55.0,30.23,NNE,27,5.0,20.0,64,0.00,,,0.00,,2013-08-24 13:52:00,
2013-08-24 10:11:00,68.0,56.0,30.23,NNE,19,7.0,17.0,65,0.00,,,0.00,,2013-08-24 14:11:00,
2013-08-24 10:22:00,69.0,55.0,30.24,NNE,29,2.0,14.0,61,0.00,,,0.00,,2013-08-24 14:22:00,
2013-08-24 10:32:00,69.0,55.0,30.24,NNE,29,2.0,14.0,61,0.00,,,0.00,,2013-08-24 14:32:00,
2013-08-24 10:52:00,69.0,55.0,30.24,NNE,29,2.0,14.0,61,0.00,,,0.00,,2013-08-24 14:52:00,
2013-08-24 11:12:00,69.0,55.0,30.25,NE,36,4.0,16.0,60,0.00,,,0.00,,2013-08-24 15:12:00,
2013-08-24 11:22:00,70.0,54.0,30.24,North,9,5.0,18.0,57,0.00,,,0.00,,2013-08-24 15:22:00,
2013-08-24 11:54:00,70.0,53.0,30.25,NNE,14,4.0,17.0,54,0.00,,,0.00,,2013-08-24 15:54:00,
2013-08-24 12:13:00,70.0,52.0,30.26,NNE,33,8.0,22.0,53,0.00,,,0.00,,2013-08-24 16:13:00,
2013-08-24 12:23:00,70.0,52.0,30.26,NNE,33,8.0,22.0,53,0.00,,,0.00,,2013-08-24 16:23:00,
2013-08-24 12:53:00,70.0,53.0,30.26,NE,41,8.0,14.0,54,0.00,,,0.00,,2013-08-24 16:53:00,
2013-08-24 13:12:00,70.0,52.0,30.26,North,9,5.0,21.0,52,0.00,,,0.00,,2013-08-24 17:12:00,
2013-08-24 13:23:00,70.0,49.0,30.26,NNE,29,6.0,14.0,47,0.00,,,0.00,,2013-08-24 17:23:00,
2013-08-24 13:42:00,70.0,49.0,30.27,ENE,68,5.0,16.0,48,0.00,,,0.00,,2013-08-24 17:42:00,
2013-08-24 13:52:00,70.0,50.0,30.27,NNE,15,2.0,18.0,49,0.00,,,0.00,,2013-08-24 17:52:00,
2013-08-24 14:03:00,70.0,50.0,30.27,NNE,15,2.0,18.0,49,0.00,,,0.00,,2013-08-24 18:03:00,
2013-08-24 14:13:00,70.0,50.0,30.27,NNE,15,2.0,18.0,49,0.00,,,0.00,,2013-08-24 18:13:00,
2013-08-24 14:22:00,70.0,49.0,30.27,NNE,14,6.0,14.0,47,0.00,,,0.00,,2013-08-24 18:22:00,
2013-08-24 14:42:00,70.0,49.0,30.27,NNE,12,6.0,16.0,47,0.00,,,0.00,,2013-08-24 18:42:00,
2013-08-24 14:53:00,70.0,50.0,30.26,NE,35,5.0,14.0,50,0.00,,,0.00,,2013-08-24 18:53:00,
2013-08-24 15:01:00,70.0,50.0,30.26,NE,35,5.0,14.0,50,0.00,,,0.00,,2013-08-24 19:01:00,
2013-08-24 15:12:00,70.0,50.0,30.26,NE,35,5.0,14.0,50,0.00,,,0.00,,2013-08-24 19:12:00,
2013-08-24 15:22:00,69.0,52.0,30.27,NNE,13,6.0,14.0,55,0.00,,,0.00,,2013-08-24 19:22:00,
2013-08-24 15:52:00,69.0,54.0,30.27,NNW,346,5.0,14.0,58,0.00,,,0.00,,2013-08-24 19:52:00,
2013-08-24 16:11:00,69.0,55.0,30.27,North,358,5.0,13.0,60,0.00,,,0.00,,2013-08-24 20:11:00,
2013-08-24 16:22:00,68.0,58.0,30.27,NNE,15,3.0,15.0,71,0.00,,,0.00,,2013-08-24 20:22:00,
2013-08-24 16:32:00,68.0,58.0,30.27,NNE,15,3.0,15.0,71,0.00,,,0.00,,2013-08-24 20:32:00,
2013-08-24 16:53:00,68.0,59.0,30.27,NNE,13,6.0,12.0,72,0.00,,,0.00,,2013-08-24 20:53:00,
2013-08-24 17:02:00,68.0,59.0,30.27,NNE,13,6.0,12.0,72,0.00,,,0.00,,2013-08-24 21:02:00,
2013-08-24 17:11:00,68.0,59.0,30.27,NNE,13,6.0,12.0,72,0.00,,,0.00,,2013-08-24 21:11:00,
2013-08-24 17:22:00,68.0,59.0,30.27,NNE,13,6.0,12.0,72,0.00,,,0.00,,2013-08-24 21:22:00,
2013-08-24 17:55:00,67.0,57.0,30.27,NNW,348,3.0,11.0,71,0.00,,,0.00,,2013-08-24 21:55:00,
2013-08-24 18:04:00,67.0,57.0,30.27,NNW,348,3.0,11.0,71,0.00,,,0.00,,2013-08-24 22:04:00,
2013-08-24 18:14:00,67.0,57.0,30.27,NNW,348,3.0,11.0,71,0.00,,,0.00,,2013-08-24 22:14:00,
2013-08-24 18:24:00,66.0,56.0,30.27,North,7,3.0,11.0,69,0.00,,,0.00,,2013-08-24 22:24:00,
2013-08-24 18:53:00,66.0,54.0,30.27,NNE,23,1.0,7.0,66,0.00,,,0.00,,2013-08-24 22:53:00,
2013-08-24 19:03:00,66.0,54.0,30.27,NNE,23,1.0,7.0,66,0.00,,,0.00,,2013-08-24 23:03:00,
2013-08-24 19:12:00,66.0,54.0,30.27,NNE,23,1.0,7.0,66,0.00,,,0.00,,2013-08-24 23:12:00,
2013-08-24 19:22:00,65.0,54.0,30.26,NE,46,0.0,1.0,67,0.00,,,0.00,,2013-08-24 23:22:00,
2013-08-24 19:34:00,65.0,54.0,30.26,NE,46,0.0,1.0,67,0.00,,,0.00,,2013-08-24 23:34:00,
2013-08-24 19:43:00,65.0,54.0,30.26,NE,46,0.0,1.0,67,0.00,,,0.00,,2013-08-24 23:43:00,
2013-08-24 19:53:00,63.0,54.0,30.27,NE,46,0.0,0.0,73,0.00,,,0.00,,2013-08-24 23:53:00,
2013-08-24 20:02:00,63.0,54.0,30.27,NE,46,0.0,0.0,73,0.00,,,0.00,,2013-08-25 00:02:00,
2013-08-24 20:12:00,63.0,54.0,30.27,NE,46,0.0,0.0,73,0.00,,,0.00,,2013-08-25 00:12:00,
2013-08-24 20:22:00,60.0,53.0,30.27,NE,46,0.0,0.0,77,0.00,,,0.00,,2013-08-25 00:22:00,
2013-08-24 20:32:00,60.0,53.0,30.27,NE,46,0.0,0.0,77,0.00,,,0.00,,2013-08-25 00:32:00,
2013-08-24 20:42:00,60.0,53.0,30.27,NE,46,0.0,0.0,77,0.00,,,0.00,,2013-08-25 00:42:00,
2013-08-24 20:52:00,58.0,52.0,30.28,NE,46,0.0,0.0,80,0.00,,,0.00,,2013-08-25 00:52:00,
2013-08-24 21:11:00,58.0,52.0,30.29,NE,46,0.0,0.0,80,0.00,,,0.00,,2013-08-25 01:11:00,
2013-08-24 21:22:00,57.0,52.0,30.29,NE,46,0.0,0.0,82,0.00,,,0.00,,2013-08-25 01:22:00,
2013-08-24 21:32:00,57.0,52.0,30.29,NE,46,0.0,0.0,82,0.00,,,0.00,,2013-08-25 01:32:00,
2013-08-24 21:41:00,56.0,52.0,30.30,NE,46,0.0,0.0,85,0.00,,,0.00,,2013-08-25 01:41:00,
2013-08-24 21:42:00,57.0,52.0,30.29,NE,46,0.0,0.0,82,0.00,,,0.00,,2013-08-25 01:42:00,
2013-08-24 21:52:00,57.0,52.0,30.30,NE,46,0.0,0.0,84,0.00,,,0.00,,2013-08-25 01:52:00,
2013-08-24 22:12:00,56.0,52.0,30.30,NE,46,0.0,0.0,85,0.00,,,0.00,,2013-08-25 02:12:00,
2013-08-24 22:22:00,56.0,52.0,30.30,NE,46,0.0,0.0,85,0.00,,,0.00,,2013-08-25 02:22:00,
2013-08-24 22:33:00,56.0,52.0,30.30,NE,46,0.0,0.0,85,0.00,,,0.00,,2013-08-25 02:33:00,
2013-08-24 22:52:00,55.0,51.0,30.30,NE,45,0.0,2.0,86,0.00,,,0.00,,2013-08-25 02:52:00,
2013-08-24 23:02:00,55.0,51.0,30.30,NE,45,0.0,2.0,86,0.00,,,0.00,,2013-08-25 03:02:00,
2013-08-24 23:21:00,55.0,51.0,30.30,NE,46,0.0,0.0,87,0.00,,,0.00,,2013-08-25 03:21:00,
2013-08-24 23:23:00,55.0,51.0,30.30,NE,46,0.0,0.0,87,0.00,,,0.00,,2013-08-25 03:23:00,
2013-08-24 23:54:00,55.0,51.0,30.30,NE,46,0.0,0.0,87,0.00,,,0.00,,2013-08-25 03:54:00,